GW3759 Weather Reports


Display with metric or nautical units.
time (UTC)temp
F
wind
direction
speed
MPH
gust
MPH
rain 1hr
in
rain 24hr
in
rain mn
in
humidity
%
barometer
mb
20240522021509 69 70 0.0 2.0 0.00 0.00 0.00 79 1015.5
20240522020008 69 70 0.0 1.0 0.00 0.00 0.00 78 1015.4
20240522014509 70 70 0.0 1.0 0.00 0.00 0.00 77 1015.2
20240522013027 70 70 0.0 0.0 0.00 0.00 0.00 76 1014.9
20240522011507 71 104 0.0 0.0 0.00 0.00 0.00 74 1014.9
20240522010007 71 104 0.0 0.0 0.00 0.00 0.00 73 1014.7
20240522004511 73 104 0.0 1.0 0.00 0.00 0.00 71 1014.9
20240522003013 74 110 0.0 0.0 0.00 0.00 0.00 70 1014.8
20240522001514 75 110 0.0 0.0 0.00 0.00 0.00 69 1014.6
20240522000007 76 110 0.0 0.0 0.00 0.00 0.00 64 1014.6
20240521234509 78 110 0.0 0.0 0.00 0.00 0.00 60 1014.7
20240521233004 79 110 0.0 0.0 0.00 0.00 0.00 58 1014.7
20240521231519 81 110 0.0 0.0 0.00 0.00 0.00 56 1014.8
20240521230007 81 110 0.0 2.0 0.00 0.00 0.00 56 1014.8
20240521224511 82 102 0.0 3.0 0.00 0.00 0.00 52 1014.7
20240521223008 82 101 0.0 1.0 0.00 0.00 0.00 53 1014.8
20240521221507 82 115 1.0 3.0 0.00 0.00 0.00 49 1014.8
20240521220004 83 84 0.0 3.0 0.00 0.00 0.00 49 1014.8
20240521214505 83 127 0.0 2.0 0.00 0.00 0.00 51 1014.8
20240521213013 83 108 0.0 3.0 0.00 0.00 0.00 51 1014.8
20240521211513 82 105 3.0 7.0 0.00 0.00 0.00 52 1014.7
20240521210014 82 164 4.0 6.0 0.00 0.00 0.00 48 1014.6
20240521204505 82 90 0.0 2.0 0.00 0.00 0.00 48 1014.6
20240521203021 81 275 0.0 7.0 0.00 0.00 0.00 55 1014.6
20240521201508 80 344 0.0 3.0 0.00 0.00 0.00 53 1014.7
20240521200010 81 146 1.0 6.0 0.00 0.00 0.00 51 1014.7
20240521194519 82 153 1.0 5.0 0.00 0.00 0.00 49 1015.0
20240521193007 81 86 0.0 7.0 0.00 0.00 0.00 55 1015.1
20240521191512 80 152 1.0 4.0 0.00 0.00 0.00 51 1015.2
20240521190026 81 126 3.0 8.0 0.00 0.00 0.00 50 1015.3
20240521184511 80 122 1.0 8.0 0.00 0.00 0.00 51 1015.3
20240521183007 80 128 0.0 5.0 0.00 0.00 0.00 54 1015.3
20240521181504 80 108 1.0 4.0 0.00 0.00 0.00 53 1015.4
20240521180012 79 213 1.0 4.0 0.00 0.00 0.00 51 1015.5
20240521174513 79 140 0.0 5.0 0.00 0.00 0.00 52 1015.7
20240521173009 78 119 0.0 6.0 0.00 0.00 0.00 51 1016.0
20240521171511 78 192 0.0 5.0 0.00 0.00 0.00 50 1016.1
20240521170013 77 120 2.0 10.0 0.00 0.00 0.00 53 1016.2
20240521164507 77 124 0.0 12.0 0.00 0.00 0.00 54 1016.4
20240521163005 77 148 4.0 10.0 0.00 0.00 0.00 56 1016.5
20240521161509 76 155 1.0 6.0 0.00 0.00 0.00 63 1016.6
20240521160009 76 158 3.0 8.0 0.00 0.00 0.00 62 1016.7
20240521154512 76 352 0.0 4.0 0.00 0.00 0.00 67 1016.6
20240521153011 75 167 1.0 4.0 0.00 0.00 0.00 68 1016.7
20240521151507 74 107 1.0 3.0 0.00 0.00 0.00 71 1016.7
20240521150015 73 128 0.0 8.0 0.00 0.00 0.00 75 1016.8
20240521144505 72 163 0.0 4.0 0.00 0.00 0.00 77 1016.9
20240521143014 72 150 0.0 3.0 0.00 0.00 0.00 81 1017.0
20240521141505 71 205 0.0 2.0 0.00 0.00 0.00 83 1017.0
20240521140009 70 148 0.0 2.0 0.00 0.00 0.00 84 1017.1
20240521134512 68 179 1.0 4.0 0.00 0.00 0.00 87 1017.2
20240521133012 67 185 0.0 3.0 0.00 0.00 0.00 90 1017.3
20240521131508 65 204 0.0 2.0 0.00 0.00 0.00 91 1017.5
20240521130009 64 217 0.0 2.0 0.00 0.00 0.00 94 1017.5
20240521124508 63 178 0.0 0.0 0.00 0.00 0.00 95 1017.2
20240521123014 62 161 0.0 0.0 0.00 0.00 0.00 96 1017.1
20240521121514 61 144 0.0 0.0 0.00 0.00 0.00 96 1017.1
20240521120006 61 169 0.0 0.0 0.00 0.00 0.00 96 1017.0
20240521114512 60 169 0.0 0.0 0.00 0.00 0.00 96 1016.9
20240521113006 60 169 0.0 0.0 0.00 0.00 0.00 96 1016.9
20240521111508 59 167 0.0 0.0 0.00 0.00 0.00 96 1016.7
20240521110009 59 348 0.0 0.0 0.00 0.00 0.00 96 1016.7
20240521104509 59 348 0.0 0.0 0.00 0.00 0.00 96 1016.6
20240521103008 59 348 0.0 0.0 0.00 0.00 0.00 96 1016.4
20240521101509 58 348 0.0 0.0 0.00 0.00 0.00 96 1016.3
20240521100009 58 348 0.0 0.0 0.00 0.00 0.00 95 1016.1
20240521094506 58 348 0.0 0.0 0.00 0.00 0.00 95 1016.2
20240521093005 59 346 0.0 0.0 0.00 0.00 0.00 95 1016.1
20240521091511 59 346 0.0 0.0 0.00 0.00 0.00 95 1015.9
20240521090013 59 350 0.0 0.0 0.00 0.00 0.00 95 1015.9
20240521084507 59 308 0.0 0.0 0.00 0.00 0.00 95 1015.9
20240521083010 59 294 0.0 0.0 0.00 0.00 0.00 95 1015.8
20240521081512 59 294 0.0 0.0 0.00 0.00 0.00 95 1016.0
20240521080008 59 294 0.0 0.0 0.00 0.00 0.00 95 1016.1
20240521074504 60 294 0.0 0.0 0.00 0.00 0.00 94 1016.1
20240521073004 60 294 0.0 0.0 0.00 0.00 0.00 94 1016.0
20240521071522 60 294 0.0 0.0 0.00 0.00 0.00 94 1015.9
20240521070017 60 294 0.0 0.0 0.00 0.00 0.00 94 1016.0
20240521064513 61 294 0.0 0.0 0.00 0.00 0.00 94 1016.1
20240521063005 61 294 0.0 0.0 0.00 0.00 0.00 94 1016.1
20240521061508 61 294 0.0 0.0 0.00 0.00 0.00 95 1016.2
20240521060005 61 294 0.0 0.0 0.00 0.00 0.00 94 1016.3
20240521054511 61 294 0.0 0.0 0.00 0.00 0.00 94 1016.5
20240521053011 62 294 0.0 0.0 0.00 0.00 0.00 94 1016.6
20240521051508 62 294 0.0 0.0 0.00 0.00 0.00 94 1016.6
20240521050009 62 294 0.0 0.0 0.00 0.00 0.00 94 1016.7
20240521044507 62 294 0.0 0.0 0.00 0.00 0.00 94 1016.5
20240521043012 62 294 0.0 0.0 0.00 0.00 0.00 93 1016.4
20240521041507 62 294 0.0 0.0 0.00 0.00 0.00 94 1016.5
20240521040016 62 294 0.0 0.0 0.00 0.00 0.00 94 1016.5
20240521034510 62 294 0.0 0.0 0.00 0.00 0.00 93 1016.5
20240521033020 63 294 0.0 0.0 0.00 0.00 0.00 92 1016.7
20240521031518 63 294 0.0 0.0 0.00 0.00 0.00 92 1016.8
20240521030007 63 294 0.0 0.0 0.00 0.00 0.00 91 1016.8
20240521024505 64 294 0.0 0.0 0.00 0.00 0.00 91 1017.0
20240521023007 64 294 0.0 0.0 0.00 0.00 0.00 90 1016.9